Wind_Speed
12 12 12 12 12 12 10 9 9 8 9 10 11 10 10 10 11 11 11 11 12 12 12 12 12 13 13 13 12 12 11 11 10 9 9 9 9 9 9 10 10 10 10 11
14 14 14 14 14 13 12 10 9 9 10 11 11 11 11 11 10 10 10 11 12 12 13 12 12 13 13 13 12 12 12 11 11 10 10 11 11 10 11 11 11 11 12 12
15 15 16 15 14 14 12 11 11 11 10 11 11 11 12 12 11 11 11 12 12 13 13 13 13 13 13 13 13 13 12 12 12 11 11 12 12 12 12 12 12 13 13 14
16 16 17 15 16 15 13 13 13 12 12 12 12 12 13 13 13 13 13 12 13 13 14 14 15 15 14 14 14 14 14 14 13 13 13 13 13 13 14 14 14 14 15 15
18 18 17 16 16 15 15 14 14 13 13 13 13 13 14 14 15 15 15 14 15 15 15 15 15 16 16 15 15 15 16 16 15 15 15 15 15 15 15 16 16 16 17 17
20 19 18 17 16 16 17 16 15 15 14 14 15 15 14 15 16 16 16 16 16 16 16 16 16 17 17 16 16 16 17 17 16 16 17 17 16 16 17 17 18 18 19 19
22 21 20 18 17 18 17 16 17 17 17 16 16 16 15 16 16 17 17 16 17 17 17 17 18 18 18 18 18 18 18 18 18 18 18 18 18 18 19 19 20 20 20 21
24 23 21 19 20 20 19 18 17 18 18 18 18 17 17 17 17 17 17 17 18 18 18 19 19 19 19 19 19 19 19 19 20 19 19 19 20 20 20 21 21 22 23 23
25 24 22 21 21 21 20 20 19 19 19 19 18 18 18 18 18 18 18 18 19 19 19 20 20 20 20 20 21 21 21 21 21 21 21 21 22 22 22 22 23 24 24 24
26 24 23 23 22 22 22 21 21 20 20 20 20 20 20 20 20 20 20 20 20 20 20 21 21 21 21 22 22 23 22 22 22 22 23 23 23 23 24 24 25 25 26 26
27 25 25 24 24 23 23 23 23 22 21 21 21 21 22 22 22 22 22 22 22 21 21 21 22 22 23 24 24 24 24 24 23 24 24 24 24 25 25 26 26 27 28 28
27 27 27 26 25 24 24 24 24 24 23 23 22 22 22 23 23 23 23 23 23 23 23 23 23 24 25 25 25 26 25 25 25 26 26 26 26 26 27 27 28 29 29 29
29 29 28 28 27 25 25 25 25 25 25 24 24 23 23 23 23 23 24 24 24 24 24 25 25 25 26 27 27 26 26 26 27 27 27 27 27 27 28 29 29 30 31 31
30 31 30 29 29 28 27 26 26 26 26 25 25 25 24 24 24 24 24 25 26 26 26 26 26 27 26 27 28 28 28 28 28 28 28 28 29 29 30 30 31 32 33 33
32 32 32 31 31 30 29 28 28 27 27 27 27 26 26 25 25 25 25 26 27 27 27 27 28 28 28 28 28 28 29 29 29 29 30 30 31 31 32 33 33 34 35 35
33 34 33 33 32 31 30 30 29 29 28 29 29 28 27 27 27 27 26 26 26 27 28 28 28 29 29 29 29 30 30 30 30 31 31 32 32 33 34 34 35 36 36 36
35 34 34 34 33 32 32 31 31 30 30 29 29 29 29 29 28 27 27 28 28 28 28 29 29 29 29 30 30 30 31 32 32 33 33 34 34 35 35 36 36 36 37 38
35 35 35 34 34 34 33 33 32 32 32 31 30 31 30 30 29 29 29 29 29 30 30 30 30 30 31 31 32 32 32 33 34 34 35 36 36 37 37 37 38 38 39 39
35 35 35 35 34 35 34 34 34 33 33 33 32 32 32 32 31 31 31 31 31 31 31 32 32 33 33 33 33 34 34 35 35 36 36 37 37 38 39 39 39 40 40 41
35 36 36 36 36 35 35 35 35 35 35 34 34 34 33 33 33 33 33 33 33 33 33 34 33 34 34 34 35 35 36 36 36 36 37 37 38 38 39 39 40 40 41 41
36 36 36 36 36 35 35 35 35 35 36 36 35 35 35 35 34 34 34 34 34 34 34 34 35 35 35 35 35 36 36 37 37 37 38 38 39 40 40 40 41 41 41 42
36 36 36 36 35 35 35 36 36 36 36 36 36 36 36 36 36 36 36 36 36 36 36 36 36 37 37 37 37 37 38 38 39 39 40 40 41 41 41 42 42 42 43 44
36 36 36 36 36 35 36 36 36 36 36 37 37 37 38 38 37 37 37 37 37 37 37 37 37 38 39 39 39 39 39 40 40 41 41 42 42 42 43 43 44 44 44 44
35 36 36 36 36 35 35 36 36 36 36 37 37 37 38 38 38 38 38 38 38 39 38 39 39 40 39 40 40 41 41 41 42 42 43 43 44 44 45 45 45 45 45 45
36 36 36 36 36 36 36 37 37 37 38 38 38 38 38 38 38 39 39 39 40 40 40 40 41 41 41 41 41 42 43 43 44 44 44 45 45 46 46 46 46 45 45 45
35 36 36 36 36 36 37 37 37 38 38 38 38 38 39 39 39 39 40 40 40 41 41 41 42 42 42 42 43 43 44 44 45 45 46 46 46 47 47 47 47 46 46 46
34 35 35 35 36 36 37 37 37 37 37 38 39 39 39 40 40 40 40 40 40 41 41 42 42 42 42 43 44 44 44 44 45 46 46 46 46 46 46 46 46 47 47 47
Wind_Direction
237 238 239 238 238 240 243 245 243 235 231 226 228 231 233 232 231 230 230 230 229 231 230 232 234 231 232 233 231 236 242 245 247 253 259 263 267 269 273 278 282 287 293 298
242 241 242 241 239 241 245 244 243 241 238 230 230 232 232 231 231 232 232 232 233 234 235 235 236 234 235 235 237 241 246 247 250 255 261 264 267 271 275 278 282 286 290 294
245 244 242 240 240 243 248 245 243 241 240 235 236 238 237 234 233 236 238 237 236 237 237 238 238 236 238 238 241 244 246 249 253 258 262 264 267 271 275 277 281 284 288 292
246 245 244 242 241 242 246 245 245 243 240 243 245 242 241 241 241 245 245 243 239 237 239 241 239 236 237 240 243 246 248 251 255 259 261 263 268 272 275 278 281 284 288 291
246 246 245 242 242 244 246 247 248 246 244 246 247 245 244 245 246 247 246 244 243 242 242 243 243 242 242 244 247 250 251 253 256 259 262 265 269 273 275 278 281 285 288 290
244 247 246 241 244 248 248 247 248 250 248 249 248 249 248 247 247 248 247 244 243 243 243 244 246 246 246 248 250 252 253 254 257 260 262 265 268 272 275 278 282 287 289 290
245 249 249 245 246 250 252 251 249 250 250 250 251 253 250 248 247 248 248 247 246 245 244 247 248 248 249 250 252 253 255 256 259 261 263 266 269 272 275 278 282 285 288 290
247 248 247 248 248 250 252 252 252 251 251 250 251 251 251 251 250 250 249 248 247 246 245 246 249 250 251 251 253 255 257 258 260 262 265 268 271 273 276 279 282 285 288 289
246 246 248 249 249 249 249 250 250 251 251 251 251 253 254 253 253 253 252 251 248 247 248 249 250 251 251 252 254 256 258 260 262 264 267 270 272 274 276 279 282 285 286 287
246 246 247 248 250 250 250 250 250 251 251 252 252 254 254 254 255 255 253 251 249 250 251 252 252 251 251 252 255 258 259 262 264 266 268 270 272 274 276 279 282 284 286 288
246 246 246 247 249 249 250 251 251 252 253 254 254 255 255 254 255 255 255 255 253 252 254 254 254 253 253 254 257 258 260 264 266 267 269 270 272 274 277 280 282 285 286 288
246 246 247 247 248 249 251 252 252 254 255 254 254 254 255 255 255 254 254 254 254 253 254 255 255 255 255 256 258 260 262 266 268 269 271 272 273 276 278 281 283 286 287 289
245 247 248 248 249 250 251 251 251 253 255 256 255 255 256 256 255 255 255 254 255 254 255 255 255 256 257 259 260 261 264 267 270 271 272 274 275 276 278 281 283 286 288 289
246 248 248 249 251 251 253 250 251 253 253 254 255 255 255 256 256 256 256 255 254 254 254 254 255 256 258 261 261 262 265 268 271 272 273 275 277 278 280 282 284 286 288 288
246 248 249 250 251 251 251 249 250 252 253 253 253 254 255 256 256 257 257 256 254 254 254 256 256 257 259 261 263 265 267 269 271 273 274 276 278 279 280 282 284 285 287 288
246 248 250 251 251 251 250 249 250 251 252 253 254 255 256 256 257 257 259 261 259 257 257 257 258 259 260 263 265 267 269 271 272 273 275 277 278 280 281 282 284 285 286 287
246 248 250 251 252 251 249 249 251 252 253 254 255 256 256 257 257 257 258 260 261 262 261 260 261 262 264 266 267 268 270 272 273 274 276 277 279 280 281 282 283 285 285 286
247 248 249 250 250 250 249 249 252 253 254 255 256 257 258 259 259 259 259 260 261 262 263 262 262 263 265 267 268 269 271 272 273 275 276 277 279 280 281 283 284 285 285 285
247 249 249 250 250 250 250 250 252 254 255 256 257 257 258 259 260 260 261 261 262 263 263 264 265 265 266 267 269 270 272 273 274 275 277 278 279 281 282 283 284 284 285 286
247 249 250 251 251 251 252 251 252 253 254 256 257 258 258 259 260 260 261 262 263 264 265 266 267 267 267 268 270 271 272 274 275 276 278 279 280 281 283 283 284 285 287 287
248 249 250 251 252 252 252 252 252 253 254 255 257 258 259 260 260 261 261 262 263 264 265 266 268 269 269 269 271 273 274 275 276 277 278 279 281 282 283 284 285 286 288 288
248 249 250 250 251 252 252 253 254 255 255 256 257 257 259 260 261 262 263 263 263 264 264 265 267 269 269 270 271 272 273 274 276 277 279 280 282 283 284 285 286 287 288 289
248 248 248 249 251 252 253 255 256 256 257 257 258 258 259 260 262 263 264 264 264 264 265 265 266 267 269 270 272 273 273 274 276 278 279 281 282 283 284 285 286 288 289 289
247 247 248 249 251 252 253 255 257 257 257 258 259 260 260 261 262 262 263 263 263 264 265 266 267 268 269 270 271 272 273 275 276 278 279 281 282 283 284 285 287 287 288 288
248 248 249 251 252 253 254 255 257 257 258 258 259 260 261 262 262 262 263 263 263 264 265 266 268 269 270 272 272 273 274 276 277 278 280 281 283 284 285 286 286 287 287 287
250 251 252 252 253 254 255 256 257 258 259 259 259 260 261 262 263 263 263 263 264 265 265 266 268 269 271 272 273 274 275 275 277 278 280 282 283 284 284 284 285 285 285 286
251 251 252 253 254 255 256 257 257 258 259 260 259 260 261 262 263 264 264 264 265 266 266 267 268 270 271 272 273 275 276 277 278 279 280 281 283 284 284 285 284 284 284 285
Height
5828 5829 5830 5832 5833 5834 5836 5837 5838 5840 5841 5843 5843 5845 5846 5847 5848 5849 5850 5851 5852 5853 5855 5856 5858 5859 5860 5862 5863 5864 5865 5866 5867 5867 5867 5868 5868 5868 5868 5868 5867 5867 5866 5865
5825 5826 5827 5829 5830 5831 5833 5834 5836 5837 5839 5840 5841 5842 5843 5844 5845 5846 5848 5849 5850 5851 5852 5854 5855 5856 5858 5859 5860 5861 5862 5863 5864 5864 5865 5865 5865 5865 5865 5865 5865 5864 5863 5862
5822 5823 5824 5826 5828 5829 5830 5832 5833 5835 5837 5837 5839 5840 5841 5842 5843 5844 5845 5846 5847 5848 5850 5851 5852 5853 5855 5856 5857 5858 5859 5860 5861 5861 5861 5862 5862 5862 5862 5862 5861 5861 5860 5859
5818 5820 5821 5826 5825 5826 5827 5829 5830 5832 5833 5834 5836 5837 5838 5839 5840 5841 5842 5843 5844 5845 5846 5847 5848 5850 5851 5852 5854 5855 5856 5856 5857 5858 5858 5858 5858 5858 5858 5858 5858 5857 5856 5855
5814 5815 5817 5820 5821 5822 5824 5826 5827 5828 5830 5831 5832 5833 5834 5835 5836 5837 5838 5839 5840 5841 5843 5844 5845 5846 5847 5849 5850 5851 5852 5853 5853 5854 5854 5854 5854 5854 5854 5854 5853 5853 5852 5851
5809 5811 5813 5817 5817 5818 5820 5822 5823 5824 5826 5827 5828 5830 5832 5832 5832 5833 5834 5835 5836 5837 5839 5840 5841 5842 5844 5845 5846 5847 5848 5848 5849 5849 5850 5850 5850 5850 5850 5849 5849 5848 5847 5846
5805 5806 5809 5811 5812 5814 5817 5819 5819 5820 5821 5822 5824 5825 5827 5827 5828 5829 5830 5831 5832 5833 5835 5836 5837 5838 5839 5841 5842 5843 5843 5844 5844 5845 5845 5845 5845 5845 5845 5844 5844 5843 5842 5841
5799 5801 5806 5806 5807 5809 5811 5812 5813 5815 5816 5818 5819 5820 5821 5822 5823 5824 5825 5827 5828 5829 5830 5832 5833 5834 5835 5836 5837 5838 5838 5839 5839 5839 5840 5840 5840 5839 5839 5839 5838 5837 5836 5835
5794 5798 5799 5800 5802 5803 5805 5807 5808 5810 5811 5813 5814 5815 5816 5817 5818 5820 5821 5822 5823 5824 5825 5827 5828 5829 5830 5831 5831 5832 5833 5833 5834 5834 5834 5834 5834 5834 5833 5833 5832 5831 5830 5828
5788 5790 5792 5794 5796 5798 5799 5801 5802 5804 5806 5807 5808 5810 5811 5812 5813 5814 5815 5816 5817 5819 5820 5821 5822 5823 5824 5825 5826 5826 5827 5827 5828 5828 5828 5828 5828 5827 5827 5826 5825 5824 5823 5821
5781 5784 5786 5788 5790 5792 5793 5795 5796 5798 5799 5801 5802 5803 5805 5806 5807 5808 5810 5811 5812 5813 5814 5815 5816 5817 5818 5819 5819 5820 5821 5821 5821 5821 5821 5821 5821 5820 5820 5819 5818 5817 5815 5814
5775 5777 5779 5782 5783 5785 5787 5788 5790 5792 5793 5794 5795 5797 5798 5799 5800 5802 5803 5804 5806 5807 5808 5809 5810 5811 5811 5812 5813 5813 5814 5814 5814 5814 5814 5813 5813 5813 5812 5811 5810 5809 5807 5806
5767 5769 5772 5774 5776 5778 5780 5782 5783 5785 5786 5788 5789 5790 5791 5792 5794 5795 5796 5797 5799 5800 5801 5802 5803 5804 5804 5805 5805 5806 5806 5807 5807 5806 5806 5806 5805 5805 5804 5803 5802 5800 5799 5797
5759 5762 5764 5767 5769 5771 5772 5774 5776 5778 5779 5781 5782 5783 5784 5786 5787 5788 5789 5790 5791 5792 5793 5794 5795 5796 5797 5797 5797 5798 5799 5799 5799 5798 5798 5797 5797 5796 5796 5794 5793 5792 5790 5788
5751 5753 5756 5758 5760 5762 5764 5766 5768 5770 5772 5773 5774 5776 5777 5778 5779 5780 5781 5782 5784 5784 5785 5787 5788 5789 5789 5789 5790 5790 5791 5791 5790 5790 5790 5789 5788 5787 5786 5785 5784 5782 5780 5778
5742 5744 5747 5749 5752 5754 5755 5758 5760 5762 5764 5765 5767 5768 5769 5771 5772 5773 5774 5775 5776 5777 5777 5778 5779 5780 5781 5781 5781 5782 5782 5782 5782 5781 5781 5780 5779 5778 5777 5775 5774 5772 5770 5768
5733 5735 5738 5740 5743 5745 5747 5749 5751 5753 5755 5757 5759 5760 5761 5762 5764 5765 5766 5767 5768 5768 5769 5770 5771 5771 5772 5772 5773 5773 5773 5773 5772 5772 5771 5770 5769 5768 5767 5765 5763 5761 5759 5757
5723 5726 5728 5730 5733 5735 5738 5740 5742 5744 5746 5748 5749 5751 5752 5754 5755 5757 5757 5758 5759 5760 5761 5761 5762 5763 5763 5763 5764 5764 5763 5763 5762 5762 5761 5760 5759 5757 5756 5754 5752 5750 5748 5746
5713 5716 5718 5720 5723 5725 5728 5730 5733 5734 5736 5738 5740 5741 5743 5744 5746 5747 5748 5749 5750 5751 5752 5752 5752 5753 5753 5753 5753 5754 5753 5753 5752 5751 5750 5749 5748 5746 5744 5743 5741 5738 5736 5734
5703 5705 5708 5710 5713 5715 5718 5720 5722 5724 5726 5728 5730 5731 5733 5734 5736 5737 5738 5739 5740 5741 5741 5742 5742 5743 5743 5743 5743 5743 5742 5742 5741 5740 5739 5738 5736 5734 5733 5731 5729 5726 5724 5721
5692 5695 5698 5700 5702 5705 5707 5709 5711 5713 5715 5717 5719 5721 5722 5724 5725 5726 5727 5729 5729 5730 5730 5731 5732 5732 5732 5732 5732 5732 5731 5730 5730 5729 5728 5726 5725 5723 5721 5719 5717 5714 5712 5709
5682 5685 5687 5690 5692 5694 5697 5699 5701 5702 5704 5706 5708 5709 5711 5712 5714 5715 5716 5717 5718 5718 5719 5719 5720 5720 5721 5721 5720 5720 5720 5719 5718 5717 5716 5714 5713 5711 5709 5707 5705 5702 5699 5697
5672 5674 5677 5679 5681 5684 5686 5688 5689 5691 5693 5694 5696 5698 5699 5701 5702 5703 5705 5705 5706 5706 5707 5708 5708 5708 5709 5709 5708 5708 5707 5707 5706 5705 5703 5702 5700 5698 5696 5694 5692 5689 5686 5683
5661 5664 5666 5669 5671 5673 5675 5676 5678 5680 5681 5683 5684 5686 5687 5688 5690 5691 5692 5693 5693 5694 5695 5695 5696 5696 5696 5696 5696 5695 5695 5694 5693 5692 5691 5689 5687 5685 5683 5681 5678 5675 5673 5670
5651 5653 5656 5658 5660 5662 5664 5665 5667 5668 5669 5671 5672 5673 5674 5676 5677 5678 5679 5680 5681 5682 5682 5683 5683 5683 5683 5683 5683 5682 5681 5680 5679 5678 5677 5675 5673 5671 5669 5666 5664 5662 5659 5657
5640 5642 5645 5647 5649 5650 5652 5654 5655 5656 5657 5659 5660 5661 5662 5663 5664 5665 5666 5667 5668 5669 5669 5669 5670 5670 5670 5669 5669 5668 5667 5666 5665 5664 5663 5661 5659 5657 5655 5653 5650 5648 5645 5643
5629 5631 5634 5636 5638 5639 5641 5642 5643 5645 5646 5647 5648 5649 5650 5651 5652 5653 5654 5654 5655 5655 5656 5656 5656 5656 5656 5656 5655 5654 5653 5652 5651 5650 5648 5646 5644 5642 5640 5638 5636 5633 5631 5628